DW7816 Weather Reports


Display with metric or nautical units.
time (UTC)temp
F
wind
direction
speed
MPH
gust
MPH
rain 1hr
in
rain 24hr
in
rain mn
in
humidity
%
barometer
mb
20201130230725 34 304 2.0 8.0 0.00 0.00 0.00 49 1023.7
20201130225736 35 294 2.0 6.0 0.00 0.00 0.00 47 1023.7
20201130224722 35 329 3.0 12.0 0.00 0.00 0.00 47 1023.7
20201130223742 36 314 4.0 12.0 0.00 0.00 0.00 45 1023.8
20201130222728 36 311 4.0 10.0 0.00 0.00 0.00 44 1023.8
20201130221740 36 299 3.0 10.0 0.00 0.00 0.00 43 1023.8
20201130220749 37 318 5.0 10.0 0.00 0.00 0.00 42 1023.8
20201130215809 38 350 4.0 11.0 0.00 0.00 0.00 40 1023.8
20201130214743 38 11 4.0 12.0 0.00 0.00 0.00 41 1023.8
20201130213748 38 355 5.0 16.0 0.00 0.00 0.00 40 1023.7
20201130212800 38 279 6.0 16.0 0.00 0.00 0.00 41 1023.7
20201130211823 38 14 5.0 15.0 0.00 0.00 0.00 41 1023.6
20201130210821 39 355 5.0 15.0 0.00 0.00 0.00 39 1023.6
20201130205837 39 16 6.0 14.0 0.00 0.00 0.00 40 1023.6
20201130204816 39 350 6.0 16.0 0.00 0.00 0.00 39 1023.7
20201130203801 39 351 6.0 16.0 0.00 0.02 0.00 39 1023.7
20201130202809 39 334 7.0 15.0 0.00 0.02 0.00 40 1023.8
20201130201739 39 5 6.0 15.0 0.00 0.04 0.00 40 1023.8
20201130200803 38 333 7.0 15.0 0.00 0.04 0.00 39 1023.9
20201130195805 38 27 8.0 15.0 0.00 0.04 0.00 39 1024.0
20201130194738 39 298 6.0 17.0 0.00 0.05 0.00 41 1024.1
20201130193729 38 298 8.0 17.0 0.00 0.05 0.00 38 1024.2
20201130192752 38 310 5.0 13.0 0.00 0.05 0.00 38 1024.3
20201130191751 38 44 8.0 21.0 0.00 0.05 0.00 40 1024.4
20201130190717 38 340 7.0 21.0 0.00 0.05 0.00 40 1024.6
20201130185700 38 329 7.0 17.0 0.00 0.05 0.00 43 1024.7
20201130184632 37 325 6.0 19.0 0.00 0.05 0.00 41 1024.8
20201130183613 37 11 8.0 19.0 0.00 0.05 0.00 44 1025.0
20201130182628 36 331 7.0 16.0 0.00 0.05 0.00 45 1025.2
20201130181619 37 290 5.0 16.0 0.00 0.05 0.00 49 1025.4
20201130180556 36 5 5.0 13.0 0.00 0.05 0.00 45 1025.4
20201130175555 36 355 6.0 15.0 0.00 0.05 0.00 48 1025.6
20201130174548 35 343 6.0 15.0 0.00 0.05 0.00 48 1025.7
20201130173542 35 328 7.0 14.0 0.00 0.06 0.00 52 1025.8
20201130172533 34 318 8.0 17.0 0.00 0.06 0.00 52 1026.1
20201130171538 34 319 7.0 17.0 0.00 0.08 0.00 55 1026.2
20201130170559 34 5 8.0 17.0 0.00 0.09 0.00 54 1026.4
20201130165555 33 335 8.0 17.0 0.00 0.09 0.00 55 1026.5
20201130164541 33 340 8.0 15.0 0.00 0.09 0.00 58 1026.5
20201130163516 33 292 7.0 17.0 0.00 0.09 0.00 60 1026.6
20201130162526 32 42 9.0 17.0 0.00 0.09 0.00 58 1026.7
20201130161549 31 341 8.0 15.0 0.00 0.09 0.00 58 1026.7
20201130160601 31 321 7.0 18.0 0.00 0.09 0.00 63 1026.6
20201130155616 30 355 8.0 18.0 0.00 0.09 0.00 62 1026.6
20201130154602 30 336 7.0 16.0 0.00 0.09 0.00 63 1026.6
20201130153557 29 336 7.0 15.0 0.00 0.09 0.00 64 1026.6
20201130152538 29 355 7.0 16.0 0.00 0.09 0.00 65 1026.3
20201130151601 28 15 7.0 16.0 0.00 0.09 0.00 66 1026.3
20201130150617 28 351 8.0 16.0 0.00 0.09 0.00 67 1026.2
20201130145546 28 32 7.0 16.0 0.00 0.09 0.00 67 1026.1
20201130144556 27 348 8.0 16.0 0.00 0.09 0.00 69 1025.9
20201130143607 27 346 8.0 16.0 0.00 0.09 0.00 69 1026.1
20201130142530 26 355 8.0 18.0 0.00 0.09 0.00 70 1026.1
20201130141553 26 22 9.0 21.0 0.00 0.09 0.00 70 1026.0
20201130140539 26 332 9.0 21.0 0.00 0.09 0.00 71 1025.9
20201130135600 26 331 8.0 18.0 0.00 0.09 0.00 70 1025.9
20201130134615 25 322 9.0 17.0 0.00 0.09 0.00 71 1025.9
20201130133605 25 14 9.0 16.0 0.00 0.09 0.00 71 1025.6
20201130132616 25 0 9.0 17.0 0.00 0.09 0.00 70 1025.6
20201130131641 25 335 8.0 19.0 0.00 0.09 0.00 70 1025.4
20201130130647 25 348 8.0 19.0 0.00 0.09 0.00 70 1025.4
20201130125711 25 294 7.0 15.0 0.00 0.09 0.00 71 1025.3
20201130124643 25 355 6.0 13.0 0.00 0.09 0.00 71 1025.2
20201130123708 25 355 6.0 13.0 0.00 0.09 0.00 70 1025.1
20201130122727 25 337 5.0 13.0 0.00 0.09 0.00 70 1025.0
20201130121745 26 11 5.0 13.0 0.00 0.09 0.00 69 1025.0
20201130120758 26 331 7.0 15.0 0.00 0.09 0.00 68 1025.0
20201130115746 26 350 7.0 18.0 0.00 0.09 0.00 68 1025.1
20201130114714 26 338 8.0 18.0 0.00 0.09 0.00 69 1025.2
20201130113706 26 17 7.0 17.0 0.00 0.09 0.00 69 1025.4
20201130112727 26 349 6.0 17.0 0.00 0.09 0.00 69 1025.2
20201130111705 26 319 8.0 17.0 0.00 0.09 0.00 69 1025.3
20201130110723 26 308 6.0 17.0 0.00 0.09 0.00 70 1025.1
20201130105704 26 342 6.0 13.0 0.00 0.09 0.00 70 1024.9
20201130104710 26 10 7.0 15.0 0.00 0.09 0.00 70 1024.9
20201130103732 27 323 6.0 15.0 0.00 0.09 0.00 70 1024.8
20201130102711 27 5 6.0 11.0 0.00 0.09 0.00 71 1025.0
20201130101713 27 317 6.0 16.0 0.00 0.09 0.00 72 1025.0
20201130100735 27 346 7.0 16.0 0.00 0.09 0.00 72 1025.0
20201130095733 27 9 6.0 17.0 0.00 0.09 0.00 73 1025.1
20201130094725 27 336 6.0 17.0 0.00 0.09 0.00 73 1025.0
20201130093737 28 344 7.0 13.0 0.00 0.09 0.00 72 1025.0
20201130092745 28 45 5.0 12.0 0.00 0.09 0.00 73 1025.1
20201130091810 28 13 7.0 14.0 0.00 0.09 0.00 72 1025.0
20201130090833 28 348 6.0 14.0 0.00 0.09 0.00 73 1025.1
20201130085757 28 13 7.0 13.0 0.00 0.09 0.00 72 1025.1
20201130084815 28 15 7.0 17.0 0.00 0.09 0.00 72 1025.0
20201130083827 28 342 8.0 17.0 0.00 0.09 0.00 72 1025.1
20201130082835 29 22 7.0 15.0 0.00 0.09 0.00 72 1025.0
20201130081811 29 336 7.0 17.0 0.00 0.09 0.00 72 1024.9
20201130080813 29 0 7.0 18.0 0.00 0.09 0.00 71 1024.9
20201130075837 29 5 7.0 18.0 0.00 0.09 0.00 70 1024.8
20201130074849 29 355 7.0 16.0 0.00 0.09 0.00 71 1024.7
20201130073900 29 19 6.0 16.0 0.00 0.09 0.00 71 1024.6
20201130072846 29 5 5.0 13.0 0.00 0.09 0.00 71 1024.7
20201130071907 30 355 6.0 15.0 0.00 0.09 0.00 71 1024.7
20201130070926 30 38 6.0 15.0 0.00 0.09 0.00 71 1024.8
20201130065907 30 20 7.0 14.0 0.00 0.09 0.00 70 1024.8
20201130064838 30 17 7.0 14.0 0.00 0.09 0.00 71 1024.7
20201130063851 30 5 7.0 14.0 0.00 0.09 0.00 70 1024.7
20201130062844 30 19 7.0 16.0 0.00 0.09 0.00 70 1024.7
20201130061828 31 349 8.0 16.0 0.00 0.09 0.00 70 1024.8
20201130060818 31 15 6.0 13.0 0.00 0.09 0.00 70 1024.8
20201130055741 31 346 6.0 16.0 0.00 0.09 0.09 70 1024.6
20201130054724 31 17 8.0 16.0 0.00 0.09 0.09 69 1024.5
20201130053725 31 23 8.0 14.0 0.00 0.09 0.09 70 1024.4
20201130052715 32 5 7.0 17.0 0.00 0.09 0.09 70 1024.2
20201130051728 32 312 9.0 18.0 0.00 0.09 0.09 70 1024.0
20201130050747 32 32 10.0 18.0 0.00 0.09 0.09 69 1024.0
20201130045713 33 5 10.0 18.0 0.00 0.09 0.09 70 1024.0
20201130044731 33 21 9.0 17.0 0.00 0.09 0.09 69 1024.0
20201130043725 33 50 9.0 18.0 0.00 0.09 0.09 69 1024.0
20201130042706 34 342 9.0 18.0 0.00 0.09 0.09 68 1024.0
20201130041638 34 5 10.0 20.0 0.00 0.09 0.09 68 1023.7
20201130040605 35 27 9.0 23.0 0.00 0.09 0.09 67 1023.7
20201130035553 35 350 12.0 28.0 0.00 0.09 0.09 66 1023.5
20201130034557 36 5 13.0 28.0 0.00 0.09 0.09 66 1023.3
20201130033522 36 19 12.0 26.0 0.00 0.09 0.09 68 1023.2
20201130032524 37 342 11.0 26.0 0.00 0.09 0.09 69 1023.1
20201130031519 37 26 10.0 20.0 0.00 0.09 0.09 71 1022.9
20201130030514 37 30 7.0 19.0 0.00 0.09 0.09 73 1022.8
20201130025504 37 35 9.0 19.0 0.00 0.09 0.09 73 1022.6
20201130024507 37 341 9.0 18.0 0.00 0.09 0.09 73 1022.6
20201130023527 37 13 9.0 20.0 0.00 0.09 0.09 72 1022.5
20201130022543 37 12 9.0 20.0 0.00 0.09 0.09 72 1022.7
20201130021531 37 59 9.0 20.0 0.00 0.09 0.09 72 1022.5
20201130020555 38 337 9.0 20.0 0.00 0.09 0.09 71 1022.4
20201130015548 38 331 9.0 20.0 0.00 0.09 0.09 72 1022.4
20201130014534 38 350 10.0 23.0 0.00 0.09 0.09 70 1022.2
20201130013521 38 17 11.0 23.0 0.00 0.09 0.09 70 1022.0
20201130012519 38 5 9.0 22.0 0.00 0.09 0.09 71 1021.9
20201130011519 38 5 9.0 22.0 0.00 0.09 0.09 72 1022.0
20201130010541 39 26 8.0 20.0 0.00 0.09 0.09 72 1021.8
20201130005524 39 14 9.0 20.0 0.00 0.09 0.09 72 1021.5
20201130004459 39 329 8.0 16.0 0.00 0.09 0.09 72 1021.3
20201130003459 40 10 6.0 12.0 0.00 0.09 0.09 73 1021.0
20201130002500 40 342 8.0 16.0 0.00 0.09 0.09 73 1020.9
20201130001442 41 5 10.0 20.0 0.00 0.09 0.09 72 1020.7
20201130000442 41 13 10.0 20.0 0.00 0.09 0.09 72 1020.5
20201129235448 41 17 10.0 19.0 0.00 0.09 0.09 73 1020.4
20201129234458 42 12 7.0 16.0 0.00 0.09 0.09 78 1020.2
20201129233438 42 11 8.0 19.0 0.00 0.09 0.09 78 1020.0
20201129232449 42 42 9.0 19.0 0.00 0.09 0.09 78 1019.8